Probability
0 0 0 0 0 0 0 0 0 0 0 0 0 0 0 0 0 0 0 0 0 0 0 0 0 0 0 0 0 0 0 0 0 0 0 0 0 0
0 0 0 0 0 0 0 0 0 0 0 0 0 0 0 0 0 0 0 0 0 0 0 0 0 0 0 0 0 0 0 0 0 0 0 0 0 0
0 0 0 0 0 0 0 0 0 0 0 0 0 0 0 0 0 0 0 0 0 0 0 0 0 0 0 0 0 0 0 0 0 0 0 0 0 0
0 0 0 0 0 0 0 0 0 0 0 0 0 0 0 0 0 0 0 0 0 0 0 0 0 0 0 0 0 0 0 0 0 0 0 0 0 0
0 0 0 0 0 0 0 0 0 0 0 0 0 0 0 0 0 0 0 0 0 0 0 0 0 0 0 0 0 0 0 0 0 0 0 0 0 0
0 0 0 0 0 0 0 0 0 0 0 0 0 0 0 0 0 0 0 0 0 0 0 0 0 0 0 0 0 0 0 0 0 0 0 0 0 0
0 0 0 0 0 0 0 0 0 0 0 0 0 0 0 0 0 0 0 0 0 0 0 0 0 0 0 0 0 0 0 0 0 0 0 0 0 0
0 0 0 0 0 0 0 0 0 0 0 0 0 0 0 0 0 0 0 0 0 0 0 0 0 0 0 0 0 0 0 0 0 0 0 0 0 0
0 0 0 0 0 0 0 0 0 0 0 0 0 0 0 0 0 0 0 0 0 0 0 0 0 0 0 0 0 0 0 0 0 0 0 0 0 0
0 0 0 0 0 0 0 0 0 0 0 0 0 0 0 0 0 0 0 0 0 0 0 0 0 0 0 0 0 0 0 0 0 0 0 0 0 0
0 0 0 0 0 0 0 0 0 0 0 0 0 0 0 0 0 0 0 0 0 0 0 0 0 0 0 0 0 0 0 0 0 0 0 0 0 0
0 0 0 0 0 0 0 0 0 0 0 0 0 0 0 0 0 0 0 0 0 0 0 0 0 0 0 0 0 0 0 0 0 0 0 0 0 0
0 0 0 0 0 0 0 0 0 0 0 0 0 0 0 0 0 0 0 0 0 0 0 0 0 0 0 0 0 0 0 0 0 0 0 0 0 0
0 0 0 0 0 0 0 0 0 0 0 0 0 0 0 0 0 0 0 0 0 0 0 0 0 0 0 0 0 0 0 0 0 0 0 0 0 0
0 0 0 0 0 0 0 0 0 0 0 0 0 0 0 0 0 0 0 0 0 0 0 0 0 0 0 0 0 0 0 0 0 0 0 0 0 0
0 0 0 0 0 0 0 0 0 0 0 0 0 0 0 0 0 0 0 0 0 0 0 0 0 0 0 0 0 0 0 0 0 0 0 0 0 0
0 0 0 0 0 0 0 0 0 0 0 0 0 0 0 0 0 0 0 0 0 0 0 0 0 0 0 0 0 0 0 0 0 0 0 0 0 0
0 0 0 0 0 0 0 0 0 0 0 0 0 0 0 0 0 0 0 0 0 0 0 0 0 0 0 0 0 0 0 0 0 0 0 0 0 0
0 0 0 0 0 0 0 0 0 0 0 0 0 0 0 0 0 0 0 0 0 0 0 0 0 0 0 0 0 0 0 0 0 0 0 0 0 0
0 0 0 0 0 0 0 0 0 0 0 0 0 0 0 0 0 0 0 0 0 0 0 0 0 0 0 0 0 0 0 0 0 0 0 0 0 0
0 0 0 0 0 0 0 0 0 0 0 0 0 0 0 0 0 0 0 0 0 0 0 0 0 0 0 0 0 0 0 0 0 0 0 0 0 0
0 0 0 0 0 0 0 0 0 0 0 0 0 0 0 0 0 0 0 0 0 0 0 0 0 0 0 0 0 0 0 0 0 0 0 0 0 0
0 0 0 0 0 0 0 0 0 0 0 0 0 0 0 0 0 0 0 0 0 0 0 0 0 0 0 0 0 0 0 0 0 0 0 0 0 0
Height
5838 5838 5838 5838 5837 5837 5837 5837 5837 5837 5837 5836 5835 5835 5834 5833 5832 5831 5830 5829 5828 5827 5826 5824 5823 5822 5820 5819 5817 5816 5814 5813 5811 5810 5808 5807 5805 5804
5836 5836 5836 5836 5836 5835 5835 5835 5834 5834 5834 5834 5833 5832 5831 5831 5830 5828 5827 5826 5825 5823 5822 5820 5819 5817 5815 5814 5812 5810 5809 5807 5805 5804 5802 5800 5798 5797
5835 5834 5834 5834 5834 5833 5833 5832 5832 5832 5831 5831 5830 5829 5828 5827 5826 5825 5824 5822 5821 5819 5818 5816 5814 5812 5810 5809 5807 5805 5803 5801 5799 5797 5795 5793 5791 5789
5833 5833 5832 5832 5831 5831 5830 5830 5829 5829 5829 5828 5827 5826 5825 5824 5823 5822 5820 5819 5817 5815 5813 5811 5809 5807 5805 5803 5801 5799 5797 5795 5793 5791 5789 5786 5784 5782
5831 5831 5830 5830 5829 5828 5828 5827 5826 5826 5826 5825 5824 5823 5822 5820 5819 5818 5816 5814 5812 5810 5808 5806 5804 5802 5799 5797 5795 5792 5790 5788 5786 5784 5781 5779 5776 5773
5829 5828 5828 5827 5826 5826 5825 5824 5823 5823 5822 5821 5820 5819 5818 5816 5815 5813 5811 5809 5807 5805 5803 5801 5798 5796 5793 5791 5788 5786 5783 5781 5778 5776 5773 5770 5767 5765
5826 5826 5825 5824 5823 5822 5822 5821 5820 5819 5818 5817 5816 5815 5813 5812 5810 5808 5806 5804 5801 5799 5797 5794 5792 5789 5787 5784 5781 5779 5776 5773 5771 5768 5765 5762 5759 5756
5823 5823 5822 5821 5820 5819 5818 5817 5816 5815 5814 5813 5811 5809 5808 5806 5804 5802 5800 5798 5796 5793 5791 5788 5785 5782 5780 5777 5774 5771 5768 5765 5762 5759 5756 5753 5750 5746
5820 5819 5818 5817 5816 5815 5814 5813 5812 5811 5809 5808 5806 5804 5802 5800 5798 5796 5793 5791 5788 5786 5783 5781 5778 5775 5772 5769 5766 5763 5760 5756 5753 5750 5747 5744 5740 5737
5817 5816 5815 5813 5812 5811 5810 5809 5807 5806 5804 5802 5800 5798 5796 5793 5791 5789 5786 5783 5781 5778 5775 5773 5770 5767 5764 5760 5757 5754 5750 5747 5744 5741 5737 5734 5730 5727
5813 5812 5810 5809 5808 5807 5805 5804 5802 5800 5798 5796 5794 5792 5789 5787 5784 5781 5779 5776 5774 5771 5768 5765 5762 5759 5756 5752 5748 5745 5741 5737 5734 5730 5727 5723 5720 5717
5809 5807 5806 5804 5803 5801 5800 5798 5796 5794 5792 5790 5787 5785 5782 5779 5776 5774 5771 5768 5765 5763 5759 5756 5753 5750 5747 5743 5739 5735 5731 5727 5723 5719 5716 5712 5709 5706
5804 5802 5801 5799 5797 5795 5793 5791 5789 5787 5785 5782 5780 5777 5774 5771 5768 5765 5762 5759 5756 5754 5751 5747 5744 5740 5736 5733 5729 5725 5721 5717 5713 5709 5705 5701 5698 5694
5798 5797 5795 5793 5791 5789 5787 5784 5782 5780 5777 5774 5772 5769 5766 5763 5760 5757 5754 5750 5747 5744 5741 5737 5734 5730 5726 5722 5718 5714 5710 5706 5702 5698 5694 5690 5686 5682
5792 5790 5788 5786 5784 5782 5780 5777 5774 5772 5769 5766 5764 5761 5758 5755 5752 5748 5745 5742 5738 5735 5731 5728 5724 5720 5716 5712 5708 5704 5700 5696 5692 5687 5683 5679 5675 5671
5785 5783 5782 5779 5777 5775 5772 5769 5767 5764 5761 5758 5755 5752 5749 5746 5742 5739 5736 5733 5729 5726 5722 5718 5714 5710 5706 5702 5697 5693 5689 5686 5682 5677 5673 5668 5664 5659
5778 5776 5774 5772 5770 5767 5764 5761 5759 5755 5752 5749 5746 5743 5740 5736 5733 5730 5726 5723 5719 5716 5713 5709 5704 5700 5696 5691 5687 5683 5679 5675 5671 5666 5662 5657 5653 5648
5770 5768 5766 5764 5761 5759 5756 5753 5750 5747 5744 5740 5737 5733 5730 5726 5723 5720 5716 5712 5709 5705 5702 5698 5694 5690 5686 5681 5677 5673 5668 5664 5659 5655 5650 5646 5641 5636
5761 5760 5758 5755 5753 5750 5747 5744 5741 5738 5735 5731 5727 5724 5720 5716 5713 5709 5705 5702 5698 5694 5691 5687 5683 5678 5675 5671 5667 5662 5657 5652 5648 5643 5638 5633 5629 5625
5752 5750 5748 5746 5744 5741 5739 5736 5732 5729 5725 5721 5718 5714 5710 5706 5702 5698 5694 5690 5686 5683 5679 5675 5671 5666 5663 5659 5655 5651 5645 5640 5636 5631 5627 5622 5617 5613
5743 5741 5739 5737 5735 5732 5729 5726 5723 5719 5715 5712 5708 5704 5700 5695 5691 5687 5682 5678 5674 5671 5667 5663 5659 5655 5650 5646 5643 5639 5634 5628 5623 5619 5615 5611 5607 5602
5733 5731 5729 5727 5725 5722 5719 5716 5713 5709 5705 5701 5697 5693 5689 5684 5679 5675 5671 5667 5663 5659 5655 5652 5647 5643 5639 5635 5631 5627 5623 5617 5612 5607 5602 5599 5594 5591
5724 5722 5720 5717 5715 5712 5709 5706 5702 5699 5695 5691 5686 5682 5677 5673 5668 5664 5660 5655 5651 5648 5644 5640 5636 5632 5628 5624 5620 5615 5611 5606 5601 5597 5593 5587 5583 5579
Wind_Speed
6 7 7 7 8 9 9 9 9 10 10 10 10 10 10 11 12 13 14 14 15 16 16 17 18 19 19 19 19 19 20 21 21 22 22 23 23 24
7 7 8 8 8 9 10 10 10 10 10 10 11 11 12 12 13 14 14 15 15 16 17 18 18 19 19 19 20 20 21 22 22 22 23 23 24 25
7 8 8 8 9 9 9 9 9 9 10 11 12 12 13 13 13 14 14 15 16 17 18 19 19 20 20 20 21 21 22 22 23 23 24 24 25 26
8 8 8 9 9 9 9 10 10 11 11 12 13 13 13 14 14 15 15 16 18 18 19 20 21 21 22 22 23 23 23 24 24 25 26 27 27 28
8 8 9 9 10 10 10 11 11 12 13 14 14 14 14 15 16 16 17 18 19 20 21 21 22 23 24 24 24 24 24 25 26 27 28 29 29 30
9 9 10 10 11 11 11 11 12 13 14 15 15 16 16 17 18 19 19 20 21 22 23 23 24 24 25 25 25 25 26 27 28 29 29 30 30 31
11 11 12 12 12 12 12 12 13 14 15 16 17 18 18 19 21 21 21 22 23 23 24 25 25 25 25 26 26 27 27 28 29 29 30 31 32 32
12 13 13 13 13 13 13 14 15 16 16 17 18 19 20 21 22 23 23 23 24 25 25 25 26 26 26 27 27 28 29 30 30 31 32 32 33 32
14 14 14 14 14 14 15 16 17 18 18 19 20 21 21 22 23 24 24 25 25 26 26 26 27 28 28 29 29 30 31 31 32 33 33 33 33 33
14 15 15 16 16 17 17 18 18 19 20 20 21 22 22 23 24 25 25 26 26 27 28 28 28 29 29 30 31 32 33 33 33 33 34 34 33 33
16 16 17 17 18 19 20 20 20 21 22 23 23 24 25 26 26 26 27 27 28 28 29 29 29 30 31 32 32 33 34 34 34 35 35 34 34 35
17 17 18 18 19 20 21 21 22 23 24 25 25 26 27 27 28 28 28 29 29 29 29 30 30 32 32 33 33 33 34 34 35 35 35 35 35 36
17 18 19 20 21 21 23 24 24 25 26 26 27 27 28 28 29 29 29 30 30 30 30 31 31 33 34 34 34 34 34 35 35 36 36 36 36 37
20 20 21 22 23 24 25 26 26 27 27 28 28 29 29 29 29 30 30 30 31 31 31 32 33 34 35 35 35 34 34 34 35 36 36 37 37 38
22 23 24 25 25 26 27 27 27 28 29 29 29 29 29 29 30 30 31 31 32 32 32 33 34 35 35 35 35 34 34 34 35 35 36 36 37 38
24 25 26 26 27 28 28 29 29 30 30 30 30 30 30 30 31 31 32 31 32 32 33 34 35 35 35 35 35 35 35 35 35 35 36 37 38 39
26 26 27 28 28 28 29 29 30 30 30 31 31 31 31 32 32 33 33 33 33 34 35 35 36 35 36 36 36 36 36 36 36 37 37 37 38 39
28 28 28 29 29 29 30 30 30 30 31 31 32 32 32 32 33 33 34 34 35 35 36 36 36 36 37 37 37 37 37 38 38 39 39 39 38 38
29 29 29 29 29 30 30 30 30 31 32 32 33 33 33 33 34 35 36 36 36 36 36 37 38 38 38 37 37 38 39 39 40 40 40 39 39 38
30 30 30 30 30 30 30 30 31 32 32 33 33 33 34 35 36 36 37 37 37 37 37 38 38 38 38 38 38 38 39 40 40 39 39 38 38 38
30 30 30 31 31 31 31 31 32 33 33 34 34 34 35 36 37 38 37 37 37 37 37 37 38 38 38 38 38 38 39 39 39 39 38 38 38 37
30 30 31 31 31 31 32 32 33 34 34 35 35 36 37 38 38 38 37 37 37 37 37 37 37 37 37 38 38 38 38 38 39 38 38 38 38 37
31 32 32 32 32 32 33 33 34 34 35 35 36 37 37 37 37 37 37 37 37 38 38 37 37 37 37 38 38 38 38 38 38 38 38 38 38 37
Wind_Direction
282 284 287 290 288 287 289 291 290 289 289 289 289 287 288 292 297 298 299 299 300 300 301 302 303 302 301 301 300 298 298 296 295 294 294 294 293 292
282 284 288 292 293 290 290 290 290 290 290 291 293 293 294 297 301 302 301 302 304 304 302 302 303 303 303 302 301 300 298 297 296 296 296 295 294 293
286 288 291 292 294 292 289 290 292 294 294 295 295 295 297 300 300 302 301 302 303 303 302 301 302 302 301 302 301 300 299 297 297 297 296 296 296 295
291 292 294 294 296 294 291 290 292 295 296 298 298 298 300 301 301 301 301 301 301 301 301 302 302 302 303 302 302 300 298 297 297 297 297 297 297 296
294 295 296 296 298 297 294 292 292 293 295 297 299 300 301 301 300 299 299 299 300 301 302 304 304 303 303 302 301 299 298 298 297 297 297 297 297 297
296 294 296 298 297 297 296 295 294 293 293 295 297 299 300 301 301 300 300 300 300 301 302 302 303 303 302 301 301 300 300 299 299 298 298 297 297 297
295 294 295 296 297 298 297 297 297 298 298 297 298 300 300 301 302 301 301 301 301 302 302 302 302 302 301 302 302 300 300 300 300 299 299 299 299 298
295 294 293 296 297 296 297 298 299 299 301 302 302 301 301 302 302 302 302 302 302 302 302 302 302 302 301 302 302 301 300 300 300 300 299 299 299 298
295 296 294 294 295 295 297 298 298 300 302 303 303 303 302 302 302 302 302 302 303 303 303 304 304 305 304 303 302 301 300 299 299 299 299 299 298 298
294 296 295 294 295 297 297 297 299 300 301 302 303 303 304 303 302 302 303 304 304 304 304 304 304 304 304 304 303 302 301 300 300 299 299 299 298 298
294 295 295 296 296 298 298 298 299 300 301 301 301 302 302 302 302 301 302 302 303 302 302 303 304 304 304 303 303 303 303 302 301 301 300 299 298 298
294 296 297 298 298 298 298 299 299 299 299 300 300 300 300 301 301 301 301 301 301 301 301 302 303 303 304 304 303 303 303 302 302 302 301 300 299 298
295 297 297 298 299 299 300 301 301 300 300 300 301 301 300 300 300 300 301 302 301 301 301 301 302 303 305 305 304 304 303 302 302 301 300 300 299 298
295 297 298 299 299 300 302 302 301 301 301 301 301 301 300 300 300 300 301 302 302 301 301 302 303 304 305 305 305 304 304 303 303 302 301 300 300 299
294 296 297 298 299 299 300 301 301 301 301 301 301 300 300 300 300 300 301 301 301 301 302 302 304 305 305 305 304 304 304 304 304 304 303 302 301 300
294 296 298 298 298 298 298 300 300 301 301 301 301 301 301 301 301 302 302 301 301 301 302 304 304 305 305 305 305 304 304 304 304 304 304 303 303 302
292 294 296 297 298 298 299 300 301 300 300 301 301 301 301 301 301 301 302 301 301 302 303 304 304 303 304 304 304 304 304 304 304 305 305 304 303 302
290 292 294 296 297 298 299 300 300 301 301 301 302 302 301 301 300 301 301 301 301 301 302 303 303 303 302 303 304 304 304 304 304 304 305 304 303 302
290 291 292 294 296 298 299 300 300 301 302 302 302 302 301 301 301 301 301 301 301 300 301 301 302 303 302 302 303 303 303 303 304 305 305 305 304 303
289 290 291 293 295 297 298 299 300 301 302 303 302 301 301 302 302 302 301 300 300 300 301 301 302 302 302 303 303 303 304 305 305 304 304 304 305 304
288 288 289 292 294 297 298 299 300 301 302 302 302 303 303 303 304 303 301 300 299 299 300 302 303 303 303 303 304 305 305 305 305 304 304 304 304 304
288 288 289 291 294 296 297 298 300 301 301 302 302 303 304 305 304 303 302 300 300 300 301 301 302 302 303 304 305 306 306 305 305 304 304 304 305 304
287 287 288 290 292 294 296 297 299 300 301 303 303 304 305 305 304 304 303 302 301 302 302 302 302 303 303 304 304 305 306 306 306 305 305 305 305 305